Flag for Canada Weather past 2 weeks in Niagara Falls, Ontario, Canada

Now
52 °F

Passing clouds.


Feels Like: 52 °F
Forecast: 40 / 56 °F
Wind: 3 mph from North

Location: Niagara Falls International Airport

Current Time: May 22, 2015 at 10:45:39 AM

Latest Report: May 22, 2015 at 9:53 AM


Visibility: 10 mi

Pressure: 30.06 "Hg

Humidity: 59%

Dew point: 38 °F

Location of Niagara FallsLocation

Historic Weather in Niagara Falls — Graph

°F

Niagara Falls temperature yesterday

Maximum temperature yesterday: 62 °F (at 1:53 PM)
Minimum temperature yesterday: 45 °F (at 12:53 AM)
Average temperature yesterday: 53 °F

Past Weeks' High & Low Weather Summary

 TemperatureHumidityPressure
High88 °F (May 9, 3:53 PM)96% (May 16, 6:53 AM)30.50 "Hg (May 16, 6:53 AM)
Low36 °F (May 14, 4:53 AM)30% (May 14, 3:53 PM)29.77 "Hg (May 12, 1:53 AM)
Average62 °F65%30.06 "Hg
* Reported May 7 9:53 AM — May 22 9:53 AM, Niagara Falls, Weather by CustomWeather, © 2015

Note: Actual official high and low records may vary slightly from our data, if they occured in-between our weather recording intervals... More about our weather records

Advertising

Niagara Falls weather history for previous 24 hours

 ConditionsComfort  
Time TempWeatherWind HumidityBarometerVisibility
9:53 AM
Fri, May 22
52 °FPassing clouds.3 mph59%30.06 "Hg10 mi
8:53 AM50 °FPassing clouds.8 mph61%30.03 "Hg10 mi
7:53 AM48 °FPassing clouds.10 mph61%30.01 "Hg10 mi
7:02 AM47 °FPassing clouds.12 mph59%29.98 "Hg10 mi
6:53 AM46 °FSunny.10 mph61%29.99 "Hg10 mi
5:53 AM46 °FClear.9 mph61%29.96 "Hg10 mi
4:53 AM45 °FPassing clouds.8 mph65%29.93 "Hg10 mi
3:53 AM47 °FPassing clouds.9 mph69%29.90 "Hg10 mi
2:53 AM49 °FPassing clouds.10 mph74%29.90 "Hg10 mi
1:53 AM50 °FPassing clouds.14 mph71%29.90 "Hg10 mi
12:53 AM50 °FMostly cloudy.14 mph68%29.89 "Hg10 mi
11:53 PM
Thu, May 21
50 °FClear.13 mph63%29.90 "Hg10 mi
10:53 PM51 °FPartly cloudy.13 mph54%29.90 "Hg10 mi
9:53 PM52 °FPassing clouds.14 mph53%29.90 "Hg10 mi
8:53 PM52 °FPartly sunny.13 mph57%29.89 "Hg10 mi
7:53 PM54 °FBroken clouds.14 mph49%29.90 "Hg10 mi
6:53 PM56 °FPartly sunny.17 mph42%29.89 "Hg10 mi
5:53 PM58 °FPartly sunny.16 mph36%29.89 "Hg10 mi
4:53 PM59 °FBroken clouds.17 mph38%29.89 "Hg10 mi
3:53 PM62 °FPartly sunny.17 mph37%29.89 "Hg10 mi
2:53 PM62 °FScattered clouds.17 mph35%29.91 "Hg10 mi
1:53 PM62 °FPassing clouds.13 mph35%29.93 "Hg10 mi
12:53 PM61 °FPassing clouds.12 mph36%29.94 "Hg10 mi
11:53 AM60 °FPassing clouds.12 mph35%29.96 "Hg10 mi
10:53 AM57 °FPassing clouds.7 mph36%29.97 "Hg10 mi
Weather by CustomWeather, © 2015

See weather overviewHow to use our weather pages